Darstellungsparameter: Aktuell verwendete Einstellungen:
Skalierung der Graphiken ... ?
xyx+y,   Skalierungsfaktor:      Skalierung: Modus: x, Faktor: 1
Darstellungszeitraum ... ?
Vom - - bis: - -   Zeitraum: 02.06.2014 - 04.06.2014
Min/Max/Avg-Anzeige ... ?
Zeige MMA aktuell
Zeige MMA Monat
Zeige MMA alles
Zeige --A aktuell
Zeige --A Monat
Zeige --A alles
Keine MMA-Anzeige
MMA:
Keine MMA-Graphiken
MMA-Basis: 02.06.2014 - 04.06.2014
Quicknavigation für Darstellung... ?
Tage:      1T, 2T, 3T, 5T -1T -2T -3T -5T +1T +2T +3T +5T
Wochen: 1W, 2W, 3W -1W -2W -3W +1W +2W +3W
Monate: 1M, 3M, 6M -1M -3M -6M +1M +3M +6M
Jahre:    1J, 3J, 5J, 10J -1J -3J -5J -10J +1J +3J +5J +10J
Nutze für die Darstellung ... ?
Originaldaten oder Mittelwerte auf ...
Stundenbasis Tagesbasis Wochenbasis
Monatsbasis Jahresbasis      Datenbasis: Original-Daten
Darstellen als:
Statistik (Auto) Statistik J:M      Darstellung:
Zur Graphik,    zurück zur Übersicht aller Sensoren.
 
Tabellarische Datenbersicht: ?
 
Sensor: Nr:Datum:Temp:Abs-Feuchte:Windchill:Wind:
Aussen-T/F 1 02-06-2014 00:00:00 13.7 C 9.24 g/m*3 13.7 C 0 km/h
2 02-06-2014 00:05:00 13.7 C 9.24 g/m*3 13.7 C 0 km/h
3 02-06-2014 00:10:00 13.6 C 8.94 g/m*3 13.6 C 0 km/h
4 02-06-2014 00:15:00 13.6 C 9.06 g/m*3 13.6 C 0 km/h
5 02-06-2014 00:20:00 13.5 C 9.01 g/m*3 13.5 C 0 km/h
6 02-06-2014 00:25:00 13.5 C 9.01 g/m*3 13.5 C 0 km/h
7 02-06-2014 00:30:00 13.4 C 8.83 g/m*3 13.4 C 0 km/h
8 02-06-2014 00:35:00 13.4 C 8.95 g/m*3 13.4 C 0 km/h
9 02-06-2014 00:40:00 13.3 C 8.9 g/m*3 13.3 C 0 km/h
10 02-06-2014 00:45:00 13.3 C 9.01 g/m*3 13.3 C 0 km/h
11 02-06-2014 00:50:00 13.2 C 8.84 g/m*3 13.2 C 0 km/h
12 02-06-2014 00:55:00 13.2 C 9.07 g/m*3 13.2 C 0 km/h
13 02-06-2014 01:00:00 13.1 C 8.9 g/m*3 13.1 C 0 km/h
14 02-06-2014 01:05:00 13.1 C 8.9 g/m*3 13.1 C 0 km/h
15 02-06-2014 01:10:00 13.1 C 9.01 g/m*3 13.1 C 0 km/h
16 02-06-2014 01:15:00 13.1 C 8.56 g/m*3 13.1 C 0 km/h
17 02-06-2014 01:20:00 13.2 C 8.73 g/m*3 13.2 C 1.6 km/h
18 02-06-2014 01:25:00 13.2 C 8.73 g/m*3 13.2 C 1.6 km/h
19 02-06-2014 01:30:00 13.3 C 9.01 g/m*3 13.3 C 0 km/h
20 02-06-2014 01:35:00 13.2 C 8.84 g/m*3 13.2 C 0 km/h
21 02-06-2014 01:40:00 13.1 C 8.79 g/m*3 13.1 C 0 km/h
22 02-06-2014 01:45:00 12.9 C 8.9 g/m*3 12.9 C 0 km/h
23 02-06-2014 01:50:00 12.7 C 8.68 g/m*3 12.7 C 0 km/h
24 02-06-2014 01:55:00 12.3 C 8.47 g/m*3 12.3 C 0 km/h
25 02-06-2014 02:00:00 12.2 C 8.52 g/m*3 12.2 C 1.6 km/h
Sensor: Nr:Datum:Temp:Abs-Feuchte:Windchill:Wind:
Aussen-T/F 26 02-06-2014 02:05:00 12.1 C 8.47 g/m*3 12.1 C 0 km/h
27 02-06-2014 02:10:00 12 C 8.42 g/m*3 12 C 0 km/h
28 02-06-2014 02:15:00 11.9 C 8.37 g/m*3 11.9 C 0 km/h
29 02-06-2014 02:20:00 11.8 C 8.42 g/m*3 11.8 C 0 km/h
30 02-06-2014 02:25:00 11.7 C 8.47 g/m*3 11.7 C 0 km/h
31 02-06-2014 02:30:00 11.6 C 8.42 g/m*3 11.6 C 0 km/h
32 02-06-2014 02:35:00 11.4 C 8.31 g/m*3 11.4 C 0 km/h
33 02-06-2014 02:40:00 11.3 C 8.36 g/m*3 11.3 C 0 km/h
34 02-06-2014 02:45:00 11.2 C 8.21 g/m*3 11.2 C 0 km/h
35 02-06-2014 02:50:00 11.1 C 8.26 g/m*3 11.1 C 0 km/h
36 02-06-2014 02:55:00 10.9 C 8.26 g/m*3 10.9 C 0 km/h
37 02-06-2014 03:00:00 10.8 C 8.2 g/m*3 10.8 C 0 km/h
38 02-06-2014 03:05:00 10.7 C 8.25 g/m*3 10.7 C 0 km/h
39 02-06-2014 03:10:00 10.6 C 8.2 g/m*3 10.6 C 0 km/h
40 02-06-2014 03:15:00 10.5 C 8.15 g/m*3 10.5 C 0 km/h
41 02-06-2014 03:20:00 10.4 C 8.19 g/m*3 10.4 C 0 km/h
42 02-06-2014 03:25:00 10.3 C 8.14 g/m*3 10.3 C 0 km/h
43 02-06-2014 03:30:00 10.2 C 8.18 g/m*3 10.2 C 0 km/h
44 02-06-2014 03:35:00 10.1 C 8.13 g/m*3 10.1 C 0 km/h
45 02-06-2014 03:40:00 10.1 C 8.13 g/m*3 10.1 C 0 km/h
46 02-06-2014 03:45:00 10 C 8.08 g/m*3 10 C 0 km/h
47 02-06-2014 03:50:00 9.9 C 8.12 g/m*3 9.9 C 0 km/h
48 02-06-2014 03:55:00 9.8 C 8.07 g/m*3 9.8 C 0 km/h
49 02-06-2014 04:00:00 9.7 C 8.02 g/m*3 9.7 C 0 km/h
50 02-06-2014 04:05:00 9.7 C 8.02 g/m*3 9.7 C 0 km/h
Sensor: Nr:Datum:Temp:Abs-Feuchte:Windchill:Wind:
Aussen-T/F 51 02-06-2014 04:10:00 9.6 C 8.06 g/m*3 9.6 C 0 km/h
52 02-06-2014 04:15:00 9.5 C 8.01 g/m*3 9.5 C 0 km/h
53 02-06-2014 04:20:00 9.4 C 8.05 g/m*3 9.4 C 0 km/h
54 02-06-2014 04:25:00 9.4 C 8.05 g/m*3 9.4 C 0 km/h
55 02-06-2014 04:30:00 9.3 C 8 g/m*3 9.3 C 0 km/h
56 02-06-2014 04:35:00 9.3 C 8 g/m*3 9.3 C 0 km/h
57 02-06-2014 04:40:00 9.2 C 8.04 g/m*3 9.2 C 0 km/h
58 02-06-2014 04:45:00 9.2 C 8.04 g/m*3 9.2 C 0 km/h
59 02-06-2014 04:50:00 9.1 C 7.9 g/m*3 9.1 C 0 km/h
60 02-06-2014 04:55:00 9.1 C 7.99 g/m*3 9.1 C 0 km/h
61 02-06-2014 05:00:00 9.1 C 7.99 g/m*3 9.1 C 0 km/h
62 02-06-2014 05:05:00 8.9 C 7.88 g/m*3 8.9 C 0 km/h
63 02-06-2014 05:10:00 8.9 C 7.88 g/m*3 8.9 C 0 km/h
64 02-06-2014 05:15:00 8.8 C 7.92 g/m*3 8.8 C 0 km/h
65 02-06-2014 05:20:00 8.8 C 7.92 g/m*3 8.8 C 0 km/h
66 02-06-2014 05:25:00 8.8 C 7.92 g/m*3 8.8 C 0 km/h
67 02-06-2014 05:30:00 8.7 C 7.87 g/m*3 8.7 C 0 km/h
68 02-06-2014 05:35:00 8.7 C 7.96 g/m*3 8.7 C 0 km/h
69 02-06-2014 05:40:00 8.7 C 7.96 g/m*3 8.7 C 0 km/h
70 02-06-2014 05:45:00 8.7 C 7.96 g/m*3 8.7 C 0 km/h
71 02-06-2014 05:50:00 8.7 C 7.96 g/m*3 8.7 C 0 km/h
72 02-06-2014 05:55:00 8.7 C 7.96 g/m*3 8.7 C 0 km/h
73 02-06-2014 06:00:00 8.7 C 7.96 g/m*3 8.7 C 0 km/h
74 02-06-2014 06:05:00 8.7 C 7.96 g/m*3 8.7 C 0 km/h
75 02-06-2014 06:10:00 8.7 C 7.96 g/m*3 8.7 C 0 km/h
Sensor: Nr:Datum:Temp:Abs-Feuchte:Windchill:Wind:
Aussen-T/F 76 02-06-2014 06:15:00 8.7 C 7.96 g/m*3 8.7 C 0 km/h
77 02-06-2014 06:20:00 8.7 C 7.96 g/m*3 8.7 C 1.6 km/h
78 02-06-2014 06:25:00 8.8 C 8.01 g/m*3 8.8 C 0 km/h
79 02-06-2014 06:30:00 8.8 C 8.09 g/m*3 8.8 C 0 km/h
80 02-06-2014 06:35:00 8.8 C 8.09 g/m*3 8.8 C 0 km/h
81 02-06-2014 06:40:00 8.8 C 8.09 g/m*3 8.8 C 0 km/h
82 02-06-2014 06:45:00 8.9 C 8.15 g/m*3 8.9 C 1.6 km/h
83 02-06-2014 06:50:00 8.9 C 8.15 g/m*3 8.9 C 0 km/h
84 02-06-2014 06:55:00 9 C 8.11 g/m*3 9 C 0 km/h
85 02-06-2014 07:00:00 9.1 C 8.16 g/m*3 9.1 C 0 km/h
86 02-06-2014 07:05:00 9.2 C 8.3 g/m*3 9.2 C 3.2 km/h
87 02-06-2014 07:10:00 9.4 C 8.32 g/m*3 8.68 C 6.4 km/h
88 02-06-2014 07:15:00 9.5 C 8.28 g/m*3 9.5 C 4.8 km/h
89 02-06-2014 07:20:00 9.6 C 8.34 g/m*3 9.6 C 1.6 km/h
90 02-06-2014 07:25:00 9.7 C 8.3 g/m*3 9.7 C 3.2 km/h
91 02-06-2014 07:30:00 9.8 C 8.35 g/m*3 9.8 C 4.8 km/h
92 02-06-2014 07:35:00 9.8 C 8.26 g/m*3 9.8 C 0 km/h
93 02-06-2014 07:40:00 9.9 C 8.31 g/m*3 9.9 C 0 km/h
94 02-06-2014 07:45:00 9.9 C 8.4 g/m*3 9.9 C 3.2 km/h
95 02-06-2014 07:50:00 10.2 C 8.56 g/m*3 10.2 C 0 km/h
96 02-06-2014 07:55:00 10.4 C 8.67 g/m*3 10.4 C 0 km/h
97 02-06-2014 08:00:00 10.7 C 8.74 g/m*3 10.7 C 0 km/h
98 02-06-2014 08:05:00 11.1 C 8.96 g/m*3 11.1 C 0 km/h
99 02-06-2014 08:10:00 11.2 C 8.92 g/m*3 11.2 C 0 km/h
100 02-06-2014 08:15:00 11.4 C 9.03 g/m*3 11.4 C 0 km/h
Sensor: Nr:Datum:Temp:Abs-Feuchte:Windchill:Wind:
Aussen-T/F 101 02-06-2014 08:20:00 11.6 C 8.94 g/m*3 11.6 C 0 km/h
102 02-06-2014 08:25:00 11.8 C 9.05 g/m*3 11.8 C 0 km/h
103 02-06-2014 08:30:00 11.9 C 9 g/m*3 11.9 C 0 km/h
104 02-06-2014 08:35:00 11.9 C 9 g/m*3 11.9 C 0 km/h
105 02-06-2014 08:40:00 11.9 C 9 g/m*3 11.9 C 0 km/h
106 02-06-2014 09:15:00 14.2 C 12.21 g/m*3 14.2 C 0 km/h
107 02-06-2014 09:20:00 14.2 C 9.65 g/m*3 14.2 C 0 km/h
108 02-06-2014 09:25:00 14.1 C 9.34 g/m*3 14.1 C 0 km/h
109 02-06-2014 09:30:00 14.1 C 9.47 g/m*3 14.1 C 0 km/h
110 02-06-2014 09:35:00 14.2 C 9.52 g/m*3 14.2 C 3.2 km/h
111 02-06-2014 09:40:00 14.5 C 9.7 g/m*3 14.5 C 3.2 km/h
112 02-06-2014 09:45:00 14.7 C 9.44 g/m*3 14.7 C 1.6 km/h
113 02-06-2014 09:50:00 14.8 C 9.5 g/m*3 14.8 C 1.6 km/h
114 02-06-2014 09:55:00 14.9 C 9.43 g/m*3 14.9 C 3.2 km/h
115 02-06-2014 10:00:00 15.2 C 9.73 g/m*3 15.2 C 4.8 km/h
116 02-06-2014 10:05:00 15.2 C 9.73 g/m*3 15.2 C 3.2 km/h
117 02-06-2014 10:10:00 15.5 C 9.52 g/m*3 15.5 C 1.6 km/h
118 02-06-2014 10:15:00 15.6 C 9.31 g/m*3 15.6 C 3.2 km/h
119 02-06-2014 10:20:00 15.7 C 9.77 g/m*3 15.7 C 3.2 km/h
120 02-06-2014 10:25:00 15.9 C 9.34 g/m*3 15.9 C 1.6 km/h
121 02-06-2014 10:30:00 16 C 9.95 g/m*3 16 C 1.6 km/h
122 02-06-2014 10:35:00 16.1 C 9.87 g/m*3 16.1 C 3.2 km/h
123 02-06-2014 10:40:00 16.1 C 9.87 g/m*3 16.1 C 3.2 km/h
124 02-06-2014 12:25:00 20.8 C 9.05 g/m*3 20.8 C 4.8 km/h
125 02-06-2014 12:30:00 20.8 C 9.05 g/m*3 20.8 C 8.1 km/h
Sensor: Nr:Datum:Temp:Abs-Feuchte:Windchill:Wind:
Aussen-T/F 126 02-06-2014 12:35:00 20.8 C 9.05 g/m*3 20.8 C 9.7 km/h
127 02-06-2014 13:25:00 20.9 C 8.92 g/m*3 20.9 C 3.2 km/h
128 02-06-2014 13:30:00 20.8 C 8.87 g/m*3 20.8 C 6.4 km/h
129 02-06-2014 13:35:00 20.8 C 8.87 g/m*3 20.8 C 6.4 km/h
130 02-06-2014 13:40:00 21.2 C 8.71 g/m*3 21.2 C 9.7 km/h
131 02-06-2014 13:45:00 21.2 C 8.71 g/m*3 21.2 C 8.1 km/h
132 02-06-2014 13:50:00 21.3 C 8.39 g/m*3 21.3 C 3.2 km/h
133 02-06-2014 13:55:00 21.3 C 9.13 g/m*3 21.3 C 9.7 km/h
134 02-06-2014 14:00:00 21.3 C 9.13 g/m*3 21.3 C 9.7 km/h
135 02-06-2014 14:05:00 21.3 C 9.13 g/m*3 21.3 C 9.7 km/h
136 02-06-2014 14:10:00 21.4 C 9.19 g/m*3 21.4 C 8.1 km/h
137 02-06-2014 14:15:00 21.4 C 9.56 g/m*3 21.4 C 3.2 km/h
138 02-06-2014 14:20:00 21.7 C 8.97 g/m*3 21.7 C 4.8 km/h
139 02-06-2014 14:25:00 21.8 C 9.59 g/m*3 21.8 C 9.7 km/h
140 02-06-2014 14:30:00 22.2 C 9.03 g/m*3 22.2 C 9.7 km/h
141 02-06-2014 14:35:00 22 C 8.73 g/m*3 22 C 6.4 km/h
142 02-06-2014 14:40:00 21.9 C 8.68 g/m*3 21.9 C 4.8 km/h
143 02-06-2014 14:45:00 22.2 C 9.03 g/m*3 22.2 C 6.4 km/h
144 02-06-2014 14:50:00 22.4 C 8.94 g/m*3 22.4 C 11.3 km/h
145 02-06-2014 14:55:00 22.6 C 8.84 g/m*3 22.6 C 4.8 km/h
146 02-06-2014 15:00:00 22.7 C 8.89 g/m*3 22.7 C 12.9 km/h
147 02-06-2014 15:05:00 22.6 C 8.64 g/m*3 22.6 C 12.9 km/h
148 02-06-2014 15:10:00 22.1 C 8.39 g/m*3 22.1 C 6.4 km/h
149 02-06-2014 15:15:00 21.9 C 8.68 g/m*3 21.9 C 6.4 km/h
150 02-06-2014 15:20:00 22.1 C 8.78 g/m*3 22.1 C 6.4 km/h
Sensor: Nr:Datum:Temp:Abs-Feuchte:Windchill:Wind:
Aussen-T/F 151 02-06-2014 15:25:00 22.3 C 8.69 g/m*3 22.3 C 6.4 km/h
152 02-06-2014 15:30:00 22.6 C 8.84 g/m*3 22.6 C 6.4 km/h
153 02-06-2014 15:35:00 22.6 C 8.84 g/m*3 22.6 C 4.8 km/h
154 02-06-2014 15:40:00 22.7 C 8.69 g/m*3 22.7 C 4.8 km/h
155 02-06-2014 15:45:00 22.8 C 9.14 g/m*3 22.8 C 4.8 km/h
156 02-06-2014 15:50:00 23.2 C 8.52 g/m*3 23.2 C 1.6 km/h
157 02-06-2014 15:55:00 23.2 C 8.11 g/m*3 23.2 C 4.8 km/h
158 02-06-2014 16:00:00 22.5 C 8.59 g/m*3 22.5 C 1.6 km/h
159 02-06-2014 16:05:00 22.1 C 8.2 g/m*3 22.1 C 4.8 km/h
160 02-06-2014 16:10:00 21.8 C 8.06 g/m*3 21.8 C 8.1 km/h
161 02-06-2014 16:15:00 21.8 C 8.06 g/m*3 21.8 C 6.4 km/h
162 02-06-2014 16:20:00 22.5 C 8.99 g/m*3 22.5 C 8.1 km/h
163 02-06-2014 16:25:00 23.1 C 8.68 g/m*3 23.1 C 9.7 km/h
164 02-06-2014 16:30:00 23.2 C 8.52 g/m*3 23.2 C 9.7 km/h
165 02-06-2014 16:35:00 23.4 C 9.46 g/m*3 23.4 C 9.7 km/h
166 02-06-2014 16:40:00 23.8 C 8.6 g/m*3 23.8 C 6.4 km/h
167 02-06-2014 16:45:00 23.6 C 8.72 g/m*3 23.6 C 6.4 km/h
168 02-06-2014 16:50:00 23.7 C 8.77 g/m*3 23.7 C 6.4 km/h
169 02-06-2014 16:55:00 23.6 C 8.29 g/m*3 23.6 C 8.1 km/h
170 02-06-2014 17:00:00 23.4 C 8.83 g/m*3 23.4 C 6.4 km/h
171 02-06-2014 17:05:00 23.6 C 8.93 g/m*3 23.6 C 11.3 km/h
172 02-06-2014 17:10:00 23.8 C 8.39 g/m*3 23.8 C 8.1 km/h
173 02-06-2014 17:15:00 23.7 C 8.13 g/m*3 23.7 C 11.3 km/h
174 02-06-2014 17:20:00 23.7 C 8.56 g/m*3 23.7 C 8.1 km/h
175 02-06-2014 17:25:00 23.7 C 8.56 g/m*3 23.7 C 8.1 km/h
Sensor: Nr:Datum:Temp:Abs-Feuchte:Windchill:Wind:
Aussen-T/F 176 02-06-2014 17:30:00 23.8 C 8.82 g/m*3 23.8 C 11.3 km/h
177 02-06-2014 17:35:00 23.8 C 8.82 g/m*3 23.8 C 6.4 km/h
178 02-06-2014 17:40:00 23.8 C 8.39 g/m*3 23.8 C 4.8 km/h
179 02-06-2014 17:45:00 24 C 8.27 g/m*3 24 C 8.1 km/h
180 02-06-2014 17:50:00 24 C 8.27 g/m*3 24 C 6.4 km/h
181 02-06-2014 18:30:00 23.7 C 8.56 g/m*3 23.7 C 6.4 km/h
182 02-06-2014 18:35:00 23.6 C 8.93 g/m*3 23.6 C 9.7 km/h
183 02-06-2014 18:40:00 23.6 C 8.29 g/m*3 23.6 C 8.1 km/h
184 02-06-2014 18:45:00 23.7 C 8.56 g/m*3 23.7 C 6.4 km/h
185 02-06-2014 18:50:00 23.6 C 8.29 g/m*3 23.6 C 8.1 km/h
186 02-06-2014 18:55:00 23.5 C 8.46 g/m*3 23.5 C 4.8 km/h
187 02-06-2014 19:00:00 23.5 C 8.46 g/m*3 23.5 C 4.8 km/h
188 02-06-2014 19:05:00 23.4 C 8.41 g/m*3 23.4 C 8.1 km/h
189 02-06-2014 19:10:00 23.4 C 8.2 g/m*3 23.4 C 9.7 km/h
190 02-06-2014 19:15:00 22.8 C 8.13 g/m*3 22.8 C 6.4 km/h
191 02-06-2014 19:20:00 22.5 C 8.19 g/m*3 22.5 C 8.1 km/h
192 02-06-2014 19:25:00 22.4 C 8.14 g/m*3 22.4 C 8.1 km/h
193 02-06-2014 19:30:00 22.3 C 8.29 g/m*3 22.3 C 9.7 km/h
194 02-06-2014 19:35:00 22.1 C 8.39 g/m*3 22.1 C 8.1 km/h
195 02-06-2014 19:40:00 22 C 8.15 g/m*3 22 C 4.8 km/h
196 02-06-2014 19:45:00 21.8 C 8.25 g/m*3 21.8 C 6.4 km/h
197 02-06-2014 19:50:00 21.7 C 8.01 g/m*3 21.7 C 6.4 km/h
198 02-06-2014 19:55:00 21.6 C 7.97 g/m*3 21.6 C 3.2 km/h
199 02-06-2014 20:00:00 21.4 C 7.87 g/m*3 21.4 C 4.8 km/h
200 02-06-2014 20:05:00 21.3 C 8.02 g/m*3 21.3 C 4.8 km/h
Sensor: Nr:Datum:Temp:Abs-Feuchte:Windchill:Wind:
Aussen-T/F 201 02-06-2014 20:10:00 21.2 C 7.97 g/m*3 21.2 C 4.8 km/h
202 02-06-2014 20:15:00 21.1 C 7.92 g/m*3 21.1 C 6.4 km/h
203 02-06-2014 20:20:00 20.9 C 8.2 g/m*3 20.9 C 3.2 km/h
204 02-06-2014 20:25:00 20.8 C 7.97 g/m*3 20.8 C 3.2 km/h
205 02-06-2014 20:30:00 20.4 C 9.73 g/m*3 20.4 C 6.4 km/h
206 02-06-2014 20:35:00 19.7 C 9.51 g/m*3 19.7 C 1.6 km/h
207 02-06-2014 20:40:00 19.3 C 9.79 g/m*3 19.3 C 1.6 km/h
208 02-06-2014 20:45:00 18.9 C 10.53 g/m*3 18.9 C 0 km/h
209 02-06-2014 20:50:00 18.6 C 10.35 g/m*3 18.6 C 0 km/h
210 02-06-2014 20:55:00 18.2 C 10.26 g/m*3 18.2 C 0 km/h
211 02-06-2014 21:00:00 17.8 C 10.17 g/m*3 17.8 C 0 km/h
212 02-06-2014 21:05:00 17.6 C 9.9 g/m*3 17.6 C 0 km/h
213 02-06-2014 21:10:00 17.4 C 9.93 g/m*3 17.4 C 0 km/h
214 02-06-2014 21:15:00 17.2 C 9.96 g/m*3 17.2 C 0 km/h
215 02-06-2014 21:20:00 17 C 9.98 g/m*3 17 C 0 km/h
216 02-06-2014 21:25:00 16.8 C 10.01 g/m*3 16.8 C 1.6 km/h
217 02-06-2014 21:30:00 16.7 C 9.81 g/m*3 16.7 C 0 km/h
218 02-06-2014 21:35:00 16.6 C 9.89 g/m*3 16.6 C 1.6 km/h
219 02-06-2014 21:40:00 16.5 C 9.97 g/m*3 16.5 C 1.6 km/h
220 02-06-2014 21:45:00 16.4 C 9.35 g/m*3 16.4 C 0 km/h
221 02-06-2014 21:50:00 16.3 C 9.57 g/m*3 16.3 C 0 km/h
222 02-06-2014 21:55:00 16.3 C 9.57 g/m*3 16.3 C 0 km/h
223 02-06-2014 22:00:00 16.3 C 9.57 g/m*3 16.3 C 0 km/h
224 02-06-2014 22:05:00 16.2 C 9.38 g/m*3 16.2 C 0 km/h
225 02-06-2014 22:10:00 16.2 C 9.24 g/m*3 16.2 C 0 km/h
Sensor: Nr:Datum:Temp:Abs-Feuchte:Windchill:Wind:
Aussen-T/F 226 02-06-2014 22:15:00 16.1 C 9.46 g/m*3 16.1 C 0 km/h
227 02-06-2014 22:20:00 16 C 9.4 g/m*3 16 C 0 km/h
228 02-06-2014 22:25:00 15.9 C 9.48 g/m*3 15.9 C 0 km/h
229 02-06-2014 22:30:00 15.9 C 9.48 g/m*3 15.9 C 0 km/h
230 02-06-2014 22:35:00 15.9 C 9.48 g/m*3 15.9 C 0 km/h
231 02-06-2014 22:40:00 15.9 C 9.75 g/m*3 15.9 C 0 km/h
232 02-06-2014 22:45:00 15.9 C 9.75 g/m*3 15.9 C 0 km/h
233 02-06-2014 22:50:00 15.9 C 9.34 g/m*3 15.9 C 0 km/h
234 02-06-2014 22:55:00 15.9 C 9.62 g/m*3 15.9 C 0 km/h
235 02-06-2014 23:00:00 15.9 C 9.34 g/m*3 15.9 C 0 km/h
236 02-06-2014 23:05:00 15.8 C 9.42 g/m*3 15.8 C 0 km/h
237 02-06-2014 23:10:00 15.8 C 9.29 g/m*3 15.8 C 0 km/h
238 02-06-2014 23:15:00 15.8 C 9.29 g/m*3 15.8 C 0 km/h
239 02-06-2014 23:20:00 15.8 C 9.69 g/m*3 15.8 C 0 km/h
240 02-06-2014 23:25:00 15.7 C 9.37 g/m*3 15.7 C 0 km/h
241 02-06-2014 23:30:00 15.7 C 9.5 g/m*3 15.7 C 0 km/h
242 02-06-2014 23:35:00 15.5 C 9.25 g/m*3 15.5 C 1.6 km/h
243 02-06-2014 23:40:00 15.4 C 9.2 g/m*3 15.4 C 0 km/h
244 02-06-2014 23:45:00 15.3 C 9.14 g/m*3 15.3 C 1.6 km/h
245 02-06-2014 23:50:00 15.2 C 9.35 g/m*3 15.2 C 0 km/h
246 02-06-2014 23:55:00 15.1 C 9.16 g/m*3 15.1 C 0 km/h
247 03-06-2014 00:00:00 15 C 9.23 g/m*3 15 C 0 km/h
248 03-06-2014 00:05:00 14.9 C 9.3 g/m*3 14.9 C 0 km/h
249 03-06-2014 00:10:00 14.8 C 9.25 g/m*3 14.8 C 0 km/h
250 03-06-2014 00:15:00 14.8 C 9.37 g/m*3 14.8 C 0 km/h
Sensor: Nr:Datum:Temp:Abs-Feuchte:Windchill:Wind:
Aussen-T/F 251 03-06-2014 00:20:00 14.7 C 9.19 g/m*3 14.7 C 0 km/h
252 03-06-2014 00:25:00 14.7 C 9.32 g/m*3 14.7 C 0 km/h
253 03-06-2014 00:30:00 14.6 C 9.26 g/m*3 14.6 C 0 km/h
254 03-06-2014 00:35:00 14.6 C 9.39 g/m*3 14.6 C 0 km/h
255 03-06-2014 00:40:00 14.4 C 9.27 g/m*3 14.4 C 0 km/h
256 03-06-2014 00:45:00 14.2 C 9.16 g/m*3 14.2 C 0 km/h
257 03-06-2014 00:50:00 14.1 C 9.22 g/m*3 14.1 C 0 km/h
258 03-06-2014 00:55:00 14 C 9.17 g/m*3 14 C 0 km/h
259 03-06-2014 01:00:00 13.9 C 9.11 g/m*3 13.9 C 0 km/h
260 03-06-2014 01:05:00 13.8 C 9.17 g/m*3 13.8 C 0 km/h
261 03-06-2014 01:10:00 13.7 C 9.24 g/m*3 13.7 C 0 km/h
262 03-06-2014 01:15:00 13.7 C 9.24 g/m*3 13.7 C 0 km/h
263 03-06-2014 01:20:00 13.6 C 9.18 g/m*3 13.6 C 0 km/h
264 03-06-2014 01:25:00 13.4 C 9.18 g/m*3 13.4 C 0 km/h
265 03-06-2014 01:30:00 13.4 C 9.18 g/m*3 13.4 C 0 km/h
266 03-06-2014 01:35:00 13.3 C 9.13 g/m*3 13.3 C 0 km/h
267 03-06-2014 01:40:00 13.2 C 9.07 g/m*3 13.2 C 0 km/h
268 03-06-2014 01:45:00 13.2 C 9.07 g/m*3 13.2 C 0 km/h
269 03-06-2014 01:50:00 13.1 C 9.13 g/m*3 13.1 C 0 km/h
270 03-06-2014 01:55:00 12.9 C 9.02 g/m*3 12.9 C 0 km/h
271 03-06-2014 02:00:00 12.8 C 9.07 g/m*3 12.8 C 0 km/h
272 03-06-2014 02:05:00 12.7 C 9.02 g/m*3 12.7 C 3.2 km/h
273 03-06-2014 02:10:00 12.7 C 9.02 g/m*3 12.7 C 3.2 km/h
274 03-06-2014 02:15:00 12.5 C 8.91 g/m*3 12.5 C 0 km/h
275 03-06-2014 02:20:00 12.4 C 8.96 g/m*3 12.4 C 0 km/h
Sensor: Nr:Datum:Temp:Abs-Feuchte:Windchill:Wind:
Aussen-T/F 276 03-06-2014 02:25:00 12.3 C 8.9 g/m*3 12.3 C 0 km/h
277 03-06-2014 02:30:00 12.2 C 8.85 g/m*3 12.2 C 0 km/h
278 03-06-2014 02:35:00 12.1 C 8.79 g/m*3 12.1 C 0 km/h
279 03-06-2014 02:40:00 11.9 C 8.79 g/m*3 11.9 C 0 km/h
280 03-06-2014 02:45:00 11.8 C 8.74 g/m*3 11.8 C 0 km/h
281 03-06-2014 02:50:00 11.8 C 8.74 g/m*3 11.8 C 0 km/h
282 03-06-2014 02:55:00 11.7 C 8.79 g/m*3 11.7 C 0 km/h
283 03-06-2014 03:00:00 11.7 C 8.79 g/m*3 11.7 C 0 km/h
284 03-06-2014 03:05:00 11.5 C 8.78 g/m*3 11.5 C 0 km/h
285 03-06-2014 03:10:00 11.4 C 8.72 g/m*3 11.4 C 0 km/h
286 03-06-2014 03:15:00 11.3 C 8.67 g/m*3 11.3 C 0 km/h
287 03-06-2014 03:20:00 11.2 C 8.62 g/m*3 11.2 C 0 km/h
288 03-06-2014 03:25:00 11.1 C 8.66 g/m*3 11.1 C 0 km/h
289 03-06-2014 03:30:00 11.1 C 8.66 g/m*3 11.1 C 0 km/h
290 03-06-2014 03:35:00 10.9 C 8.55 g/m*3 10.9 C 0 km/h
291 03-06-2014 03:40:00 10.9 C 8.55 g/m*3 10.9 C 0 km/h
292 03-06-2014 03:45:00 10.8 C 8.6 g/m*3 10.8 C 0 km/h
293 03-06-2014 03:50:00 10.8 C 8.6 g/m*3 10.8 C 0 km/h
294 03-06-2014 03:55:00 10.8 C 8.6 g/m*3 10.8 C 0 km/h
295 03-06-2014 04:00:00 10.7 C 8.55 g/m*3 10.7 C 0 km/h
296 03-06-2014 04:05:00 10.6 C 8.49 g/m*3 10.6 C 0 km/h
297 03-06-2014 04:10:00 10.5 C 8.53 g/m*3 10.5 C 0 km/h
298 03-06-2014 04:15:00 10.4 C 8.48 g/m*3 10.4 C 0 km/h
299 03-06-2014 04:20:00 10.4 C 8.48 g/m*3 10.4 C 0 km/h
300 03-06-2014 04:25:00 10.3 C 8.52 g/m*3 10.3 C 0 km/h
Sensor: Nr:Datum:Temp:Abs-Feuchte:Windchill:Wind:
Aussen-T/F 301 03-06-2014 04:30:00 10.3 C 8.52 g/m*3 10.3 C 0 km/h
302 03-06-2014 04:35:00 10.2 C 8.47 g/m*3 10.2 C 0 km/h
303 03-06-2014 04:40:00 10.2 C 8.47 g/m*3 10.2 C 0 km/h
304 03-06-2014 04:45:00 10.1 C 8.51 g/m*3 10.1 C 0 km/h
305 03-06-2014 04:50:00 10.1 C 8.51 g/m*3 10.1 C 0 km/h
306 03-06-2014 04:55:00 10 C 8.46 g/m*3 10 C 0 km/h
307 03-06-2014 05:00:00 9.9 C 8.4 g/m*3 9.9 C 0 km/h
308 03-06-2014 05:05:00 9.9 C 8.5 g/m*3 9.9 C 0 km/h
309 03-06-2014 05:10:00 9.9 C 8.5 g/m*3 9.9 C 0 km/h
310 03-06-2014 05:15:00 9.9 C 8.5 g/m*3 9.9 C 0 km/h
311 03-06-2014 05:20:00 9.8 C 8.44 g/m*3 9.8 C 0 km/h
312 03-06-2014 05:25:00 9.8 C 8.44 g/m*3 9.8 C 0 km/h
313 03-06-2014 05:30:00 9.8 C 8.54 g/m*3 9.8 C 0 km/h
314 03-06-2014 05:35:00 9.8 C 8.54 g/m*3 9.8 C 0 km/h
315 03-06-2014 05:40:00 9.8 C 8.54 g/m*3 9.8 C 0 km/h
316 03-06-2014 05:45:00 9.8 C 8.54 g/m*3 9.8 C 0 km/h
317 03-06-2014 05:50:00 9.8 C 8.54 g/m*3 9.8 C 0 km/h
318 03-06-2014 05:55:00 9.8 C 8.54 g/m*3 9.8 C 0 km/h
319 03-06-2014 06:00:00 9.8 C 8.54 g/m*3 9.8 C 0 km/h
320 03-06-2014 06:05:00 9.8 C 8.54 g/m*3 9.8 C 0 km/h
321 03-06-2014 06:10:00 9.9 C 8.68 g/m*3 9.25 C 6.4 km/h
322 03-06-2014 06:15:00 10 C 8.74 g/m*3 9.37 C 6.4 km/h
323 03-06-2014 06:20:00 10.1 C 8.7 g/m*3 10.1 C 0 km/h
324 03-06-2014 06:25:00 10.1 C 8.7 g/m*3 10.1 C 0 km/h
325 03-06-2014 06:30:00 10.2 C 8.76 g/m*3 10.2 C 0 km/h
Sensor: Nr:Datum:Temp:Abs-Feuchte:Windchill:Wind:
Aussen-T/F 326 03-06-2014 06:35:00 10.2 C 8.76 g/m*3 10.2 C 0 km/h
327 03-06-2014 06:40:00 10.3 C 8.81 g/m*3 10.3 C 0 km/h
328 03-06-2014 06:45:00 10.4 C 8.87 g/m*3 10.4 C 0 km/h
329 03-06-2014 06:50:00 10.5 C 8.92 g/m*3 10.5 C 3.2 km/h
330 03-06-2014 06:55:00 10.6 C 8.88 g/m*3 10.6 C 0 km/h
331 03-06-2014 07:00:00 10.7 C 8.94 g/m*3 10.7 C 0 km/h
332 03-06-2014 07:05:00 10.8 C 8.99 g/m*3 10.8 C 0 km/h
333 03-06-2014 07:10:00 10.9 C 9.05 g/m*3 10.9 C 1.6 km/h
334 03-06-2014 07:15:00 11 C 9.01 g/m*3 11 C 3.2 km/h
335 03-06-2014 07:20:00 11.1 C 9.07 g/m*3 11.1 C 3.2 km/h
336 03-06-2014 07:25:00 11.3 C 9.18 g/m*3 11.3 C 4.8 km/h
337 03-06-2014 07:30:00 11.4 C 9.14 g/m*3 11.4 C 4.8 km/h
338 03-06-2014 07:35:00 11.6 C 9.25 g/m*3 11.6 C 3.2 km/h
339 03-06-2014 07:40:00 11.7 C 9.2 g/m*3 11.7 C 4.8 km/h
340 03-06-2014 07:45:00 11.8 C 9.26 g/m*3 11.8 C 4.8 km/h
341 03-06-2014 07:50:00 12.1 C 9.44 g/m*3 12.1 C 3.2 km/h
342 03-06-2014 07:55:00 12.2 C 9.28 g/m*3 12.2 C 4.8 km/h
343 03-06-2014 08:00:00 12.3 C 9.34 g/m*3 12.3 C 4.8 km/h
344 03-06-2014 08:05:00 12.4 C 9.4 g/m*3 12.4 C 3.2 km/h
345 03-06-2014 08:10:00 12.5 C 9.35 g/m*3 12.5 C 3.2 km/h
346 03-06-2014 08:15:00 12.6 C 9.4 g/m*3 12.6 C 1.6 km/h
347 03-06-2014 08:20:00 12.7 C 9.46 g/m*3 12.7 C 1.6 km/h
348 03-06-2014 08:25:00 12.9 C 9.58 g/m*3 12.9 C 1.6 km/h
349 03-06-2014 08:30:00 13.1 C 9.47 g/m*3 13.1 C 3.2 km/h
350 03-06-2014 08:35:00 13.3 C 9.59 g/m*3 13.3 C 1.6 km/h
Sensor: Nr:Datum:Temp:Abs-Feuchte:Windchill:Wind:
Aussen-T/F 351 03-06-2014 08:40:00 13.4 C 9.65 g/m*3 13.4 C 3.2 km/h
352 03-06-2014 08:45:00 13.6 C 9.53 g/m*3 13.6 C 3.2 km/h
353 03-06-2014 08:50:00 13.7 C 9.59 g/m*3 13.7 C 4.8 km/h
354 03-06-2014 08:55:00 13.7 C 9.47 g/m*3 13.7 C 1.6 km/h
355 03-06-2014 09:00:00 13.8 C 9.53 g/m*3 13.8 C 3.2 km/h
356 03-06-2014 09:05:00 13.9 C 9.59 g/m*3 13.9 C 3.2 km/h
357 03-06-2014 09:10:00 14.1 C 9.71 g/m*3 14.1 C 3.2 km/h
358 03-06-2014 09:15:00 14.2 C 9.77 g/m*3 14.2 C 0 km/h
359 03-06-2014 09:20:00 14.3 C 9.95 g/m*3 14.3 C 1.6 km/h
360 03-06-2014 09:25:00 14.4 C 10.01 g/m*3 14.4 C 1.6 km/h
361 03-06-2014 09:30:00 14.4 C 10.01 g/m*3 14.4 C 0 km/h
362 03-06-2014 09:35:00 14.6 C 10.26 g/m*3 14.6 C 0 km/h
363 03-06-2014 09:40:00 14.7 C 10.2 g/m*3 14.7 C 1.6 km/h
364 03-06-2014 09:45:00 14.8 C 10.13 g/m*3 14.8 C 0 km/h
365 03-06-2014 09:50:00 15.1 C 10.19 g/m*3 15.1 C 1.6 km/h
366 03-06-2014 09:55:00 15.5 C 10.18 g/m*3 15.5 C 1.6 km/h
367 03-06-2014 10:00:00 16 C 10.63 g/m*3 16 C 1.6 km/h
368 03-06-2014 10:05:00 16.5 C 10.95 g/m*3 16.5 C 0 km/h
369 03-06-2014 10:10:00 17.1 C 10.77 g/m*3 17.1 C 1.6 km/h
370 03-06-2014 10:15:00 17.4 C 10.67 g/m*3 17.4 C 3.2 km/h
371 03-06-2014 10:20:00 17.8 C 10.62 g/m*3 17.8 C 3.2 km/h
372 03-06-2014 10:25:00 17.9 C 10.69 g/m*3 17.9 C 1.6 km/h
373 03-06-2014 10:30:00 18.2 C 10.72 g/m*3 18.2 C 0 km/h
374 03-06-2014 10:35:00 18.4 C 10.85 g/m*3 18.4 C 4.8 km/h
375 03-06-2014 10:40:00 18.7 C 10.89 g/m*3 18.7 C 3.2 km/h
Sensor: Nr:Datum:Temp:Abs-Feuchte:Windchill:Wind:
Aussen-T/F 376 03-06-2014 10:45:00 18.9 C 10.37 g/m*3 18.9 C 3.2 km/h
377 03-06-2014 10:50:00 18.9 C 11.02 g/m*3 18.9 C 3.2 km/h
378 03-06-2014 10:55:00 18.9 C 10.85 g/m*3 18.9 C 1.6 km/h
379 03-06-2014 11:00:00 18.8 C 10.79 g/m*3 18.8 C 1.6 km/h
380 03-06-2014 11:05:00 18.7 C 10.73 g/m*3 18.7 C 0 km/h
381 03-06-2014 11:10:00 18.6 C 11.46 g/m*3 18.6 C 0 km/h
382 03-06-2014 11:15:00 18.6 C 11.14 g/m*3 18.6 C 3.2 km/h
383 03-06-2014 11:20:00 18.6 C 11.14 g/m*3 18.6 C 3.2 km/h
384 03-06-2014 11:25:00 18.9 C 11.18 g/m*3 18.9 C 3.2 km/h
385 03-06-2014 11:30:00 19.3 C 10.78 g/m*3 19.3 C 3.2 km/h
386 03-06-2014 11:35:00 19.7 C 11.21 g/m*3 19.7 C 3.2 km/h
387 03-06-2014 11:40:00 20.1 C 10.95 g/m*3 20.1 C 3.2 km/h
388 03-06-2014 11:45:00 20.6 C 11.1 g/m*3 20.6 C 6.4 km/h
389 03-06-2014 11:50:00 20.9 C 11.47 g/m*3 20.9 C 4.8 km/h
390 03-06-2014 11:55:00 20.8 C 10.5 g/m*3 20.8 C 4.8 km/h
391 03-06-2014 12:00:00 20.7 C 11.34 g/m*3 20.7 C 1.6 km/h
392 03-06-2014 12:05:00 20.1 C 11.47 g/m*3 20.1 C 0 km/h
393 03-06-2014 12:10:00 19.2 C 11.87 g/m*3 19.2 C 0 km/h
394 03-06-2014 12:15:00 18.6 C 11.62 g/m*3 18.6 C 0 km/h
395 03-06-2014 12:20:00 18 C 11.52 g/m*3 18 C 0 km/h
396 03-06-2014 12:25:00 17.7 C 11.62 g/m*3 17.7 C 0 km/h
397 03-06-2014 12:30:00 17.6 C 11.7 g/m*3 17.6 C 0 km/h
398 03-06-2014 12:35:00 17.6 C 11.55 g/m*3 17.6 C 0 km/h
399 03-06-2014 12:40:00 17.8 C 11.84 g/m*3 17.8 C 0 km/h
400 03-06-2014 12:45:00 18.5 C 11.08 g/m*3 18.5 C 4.8 km/h
Sensor: Nr:Datum:Temp:Abs-Feuchte:Windchill:Wind:
Aussen-T/F 401 03-06-2014 12:50:00 19.7 C 10.53 g/m*3 19.7 C 3.2 km/h
402 03-06-2014 12:55:00 20.4 C 9.73 g/m*3 20.4 C 4.8 km/h
403 03-06-2014 13:00:00 21.1 C 9.58 g/m*3 21.1 C 3.2 km/h
404 03-06-2014 13:05:00 21.8 C 9.98 g/m*3 21.8 C 3.2 km/h
405 03-06-2014 13:10:00 22.2 C 9.42 g/m*3 22.2 C 6.4 km/h
406 03-06-2014 13:15:00 22.4 C 9.14 g/m*3 22.4 C 4.8 km/h
407 03-06-2014 13:20:00 22.7 C 9.5 g/m*3 22.7 C 4.8 km/h
408 03-06-2014 13:25:00 22.9 C 8.99 g/m*3 22.9 C 1.6 km/h
409 03-06-2014 13:30:00 23.1 C 8.27 g/m*3 23.1 C 6.4 km/h
410 03-06-2014 13:35:00 23.3 C 8.36 g/m*3 23.3 C 8.1 km/h
411 03-06-2014 13:40:00 23 C 8.22 g/m*3 23 C 4.8 km/h
412 03-06-2014 13:45:00 23.1 C 8.27 g/m*3 23.1 C 4.8 km/h
413 03-06-2014 13:50:00 23.3 C 8.36 g/m*3 23.3 C 8.1 km/h
414 03-06-2014 13:55:00 23.3 C 8.36 g/m*3 23.3 C 6.4 km/h
415 03-06-2014 14:20:00 21.7 C 10.68 g/m*3 21.7 C 1.6 km/h
416 03-06-2014 14:25:00 21 C 10.62 g/m*3 21 C 4.8 km/h
417 03-06-2014 14:30:00 20.9 C 11.11 g/m*3 20.9 C 1.6 km/h
418 03-06-2014 14:35:00 20.8 C 10.5 g/m*3 20.8 C 1.6 km/h
419 03-06-2014 14:40:00 20.8 C 9.6 g/m*3 20.8 C 14.5 km/h
420 03-06-2014 14:45:00 20.7 C 9.72 g/m*3 20.7 C 14.5 km/h
421 03-06-2014 14:50:00 20.6 C 9.84 g/m*3 20.6 C 6.4 km/h
422 03-06-2014 14:55:00 20.4 C 9.91 g/m*3 20.4 C 4.8 km/h
423 03-06-2014 15:00:00 20.2 C 9.79 g/m*3 20.2 C 6.4 km/h
424 03-06-2014 15:05:00 19.9 C 9.97 g/m*3 19.9 C 9.7 km/h
425 03-06-2014 15:10:00 19.7 C 9.85 g/m*3 19.7 C 8.1 km/h
Sensor: Nr:Datum:Temp:Abs-Feuchte:Windchill:Wind:
Aussen-T/F 426 03-06-2014 15:15:00 19.6 C 9.79 g/m*3 19.6 C 6.4 km/h
427 03-06-2014 15:20:00 19.6 C 9.79 g/m*3 19.6 C 8.1 km/h
428 03-06-2014 15:25:00 19.7 C 9.85 g/m*3 19.7 C 11.3 km/h
429 03-06-2014 15:30:00 19.8 C 9.57 g/m*3 19.8 C 6.4 km/h
430 03-06-2014 15:35:00 19.9 C 9.45 g/m*3 19.9 C 3.2 km/h
431 03-06-2014 15:40:00 20.1 C 9.73 g/m*3 20.1 C 6.4 km/h
432 03-06-2014 15:45:00 20.3 C 10.02 g/m*3 20.3 C 8.1 km/h
433 03-06-2014 15:50:00 20.5 C 9.25 g/m*3 20.5 C 9.7 km/h
434 03-06-2014 15:55:00 20.3 C 9.32 g/m*3 20.3 C 8.1 km/h
435 03-06-2014 16:00:00 20.3 C 9.32 g/m*3 20.3 C 3.2 km/h
436 03-06-2014 16:05:00 20.3 C 9.32 g/m*3 20.3 C 1.6 km/h
437 03-06-2014 16:10:00 20.4 C 9.73 g/m*3 20.4 C 8.1 km/h
438 03-06-2014 16:15:00 20.4 C 10.08 g/m*3 20.4 C 3.2 km/h
439 03-06-2014 16:20:00 20.4 C 9.91 g/m*3 20.4 C 0 km/h
440 03-06-2014 16:25:00 20.3 C 10.55 g/m*3 20.3 C 0 km/h
441 03-06-2014 16:30:00 20.1 C 11.65 g/m*3 20.1 C 0 km/h
442 03-06-2014 16:35:00 19.7 C 11.72 g/m*3 19.7 C 0 km/h
443 03-06-2014 16:40:00 19.4 C 11.51 g/m*3 19.4 C 0 km/h
444 03-06-2014 16:45:00 19.2 C 11.71 g/m*3 19.2 C 0 km/h
445 03-06-2014 16:50:00 19 C 11.41 g/m*3 19 C 0 km/h
446 03-06-2014 16:55:00 18.8 C 11.6 g/m*3 18.8 C 0 km/h
447 03-06-2014 17:00:00 18.8 C 11.6 g/m*3 18.8 C 0 km/h
448 03-06-2014 17:05:00 18.8 C 11.43 g/m*3 18.8 C 0 km/h
449 03-06-2014 17:10:00 18.9 C 11.66 g/m*3 18.9 C 0 km/h
450 03-06-2014 17:15:00 18.9 C 11.83 g/m*3 18.9 C 0 km/h
Sensor: Nr:Datum:Temp:Abs-Feuchte:Windchill:Wind:
Aussen-T/F 451 03-06-2014 17:20:00 18.9 C 11.99 g/m*3 18.9 C 0 km/h
452 03-06-2014 17:25:00 18.9 C 11.99 g/m*3 18.9 C 0 km/h
453 03-06-2014 17:30:00 18.8 C 11.92 g/m*3 18.8 C 0 km/h
454 03-06-2014 17:35:00 18.8 C 12.08 g/m*3 18.8 C 0 km/h
455 03-06-2014 17:40:00 18.9 C 11.99 g/m*3 18.9 C 0 km/h
456 03-06-2014 17:45:00 19.1 C 10.82 g/m*3 19.1 C 0 km/h
457 03-06-2014 17:50:00 19.4 C 11.68 g/m*3 19.4 C 1.6 km/h
458 03-06-2014 17:55:00 19.8 C 11.44 g/m*3 19.8 C 1.6 km/h
459 03-06-2014 18:00:00 20.1 C 10.95 g/m*3 20.1 C 3.2 km/h
460 03-06-2014 18:05:00 20.1 C 10.08 g/m*3 20.1 C 6.4 km/h
461 03-06-2014 18:10:00 20.2 C 10.14 g/m*3 20.2 C 4.8 km/h
462 03-06-2014 18:15:00 20.3 C 10.2 g/m*3 20.3 C 3.2 km/h
463 03-06-2014 18:20:00 20.4 C 11.85 g/m*3 20.4 C 1.6 km/h
464 03-06-2014 18:25:00 20.4 C 12.21 g/m*3 20.4 C 0 km/h
465 03-06-2014 18:30:00 20.3 C 12.31 g/m*3 20.3 C 1.6 km/h
466 03-06-2014 18:35:00 20.4 C 9.91 g/m*3 20.4 C 4.8 km/h
467 03-06-2014 18:40:00 20.9 C 9.83 g/m*3 20.9 C 4.8 km/h
468 03-06-2014 18:45:00 21.4 C 9.75 g/m*3 21.4 C 4.8 km/h
469 03-06-2014 18:50:00 21.7 C 9.73 g/m*3 21.7 C 1.6 km/h
470 03-06-2014 18:55:00 21.5 C 11.5 g/m*3 21.5 C 0 km/h
471 03-06-2014 19:00:00 21.2 C 11.68 g/m*3 21.2 C 0 km/h
472 03-06-2014 19:05:00 20.9 C 11.47 g/m*3 20.9 C 0 km/h
473 03-06-2014 19:10:00 20.5 C 11.57 g/m*3 20.5 C 0 km/h
474 03-06-2014 19:15:00 20.1 C 11.99 g/m*3 20.1 C 0 km/h
475 03-06-2014 19:20:00 19.8 C 11.61 g/m*3 19.8 C 1.6 km/h
Sensor: Nr:Datum:Temp:Abs-Feuchte:Windchill:Wind:
Aussen-T/F 476 03-06-2014 19:25:00 19.6 C 11.48 g/m*3 19.6 C 1.6 km/h
477 03-06-2014 19:30:00 19.3 C 11.78 g/m*3 19.3 C 0 km/h
478 03-06-2014 19:35:00 18.9 C 11.66 g/m*3 18.9 C 0 km/h
479 03-06-2014 19:40:00 18.4 C 11.48 g/m*3 18.4 C 0 km/h
480 03-06-2014 19:45:00 18.1 C 11.59 g/m*3 18.1 C 0 km/h
481 03-06-2014 19:50:00 17.8 C 11.38 g/m*3 17.8 C 0 km/h
482 03-06-2014 19:55:00 17.6 C 11.4 g/m*3 17.6 C 1.6 km/h
483 03-06-2014 20:00:00 17.5 C 11.33 g/m*3 17.5 C 1.6 km/h
484 03-06-2014 20:05:00 17.3 C 11.2 g/m*3 17.3 C 0 km/h
485 03-06-2014 20:10:00 17.2 C 11.28 g/m*3 17.2 C 1.6 km/h
486 03-06-2014 20:15:00 17.2 C 11.13 g/m*3 17.2 C 0 km/h
487 03-06-2014 20:20:00 17.1 C 11.21 g/m*3 17.1 C 0 km/h
488 03-06-2014 20:25:00 16.9 C 11.22 g/m*3 16.9 C 0 km/h
489 03-06-2014 20:30:00 16.9 C 11.08 g/m*3 16.9 C 0 km/h
490 03-06-2014 20:35:00 16.8 C 11.01 g/m*3 16.8 C 0 km/h
491 03-06-2014 20:40:00 16.8 C 11.01 g/m*3 16.8 C 1.6 km/h
492 03-06-2014 20:45:00 16.8 C 11.01 g/m*3 16.8 C 0 km/h
493 03-06-2014 20:50:00 16.9 C 11.22 g/m*3 16.9 C 0 km/h
494 03-06-2014 20:55:00 16.9 C 11.22 g/m*3 16.9 C 0 km/h
495 03-06-2014 21:00:00 16.8 C 11.29 g/m*3 16.8 C 0 km/h
496 03-06-2014 21:05:00 16.8 C 11.29 g/m*3 16.8 C 0 km/h
497 03-06-2014 21:10:00 16.7 C 11.23 g/m*3 16.7 C 1.6 km/h
498 03-06-2014 21:15:00 16.5 C 11.09 g/m*3 16.5 C 0 km/h
499 03-06-2014 21:20:00 16.4 C 10.89 g/m*3 16.4 C 1.6 km/h
500 03-06-2014 21:25:00 16.2 C 10.76 g/m*3 16.2 C 0 km/h
Sensor: Nr:Datum:Temp:Abs-Feuchte:Windchill:Wind:
Aussen-T/F 501 03-06-2014 21:30:00 16.1 C 10.69 g/m*3 16.1 C 0 km/h
502 03-06-2014 21:35:00 15.9 C 10.56 g/m*3 15.9 C 0 km/h
503 03-06-2014 21:40:00 15.8 C 10.36 g/m*3 15.8 C 0 km/h
504 03-06-2014 21:45:00 15.7 C 10.3 g/m*3 15.7 C 0 km/h
505 03-06-2014 21:50:00 15.6 C 10.24 g/m*3 15.6 C 0 km/h
506 03-06-2014 21:55:00 15.4 C 10.12 g/m*3 15.4 C 0 km/h
507 03-06-2014 22:00:00 15.3 C 10.06 g/m*3 15.3 C 0 km/h
508 03-06-2014 22:05:00 15.2 C 10.12 g/m*3 15.2 C 0 km/h
509 03-06-2014 22:10:00 15.1 C 10.06 g/m*3 15.1 C 0 km/h
510 03-06-2014 22:15:00 14.9 C 9.94 g/m*3 14.9 C 0 km/h
511 03-06-2014 22:20:00 14.8 C 10.01 g/m*3 14.8 C 0 km/h
512 03-06-2014 22:25:00 14.7 C 9.95 g/m*3 14.7 C 0 km/h
513 03-06-2014 22:30:00 14.6 C 9.89 g/m*3 14.6 C 0 km/h
514 03-06-2014 22:35:00 14.4 C 9.77 g/m*3 14.4 C 0 km/h
515 03-06-2014 22:40:00 14.3 C 9.83 g/m*3 14.3 C 0 km/h
516 03-06-2014 22:45:00 14.2 C 9.89 g/m*3 14.2 C 0 km/h
517 03-06-2014 22:50:00 14.2 C 9.89 g/m*3 14.2 C 0 km/h
518 03-06-2014 22:55:00 14.1 C 9.83 g/m*3 14.1 C 0 km/h
519 03-06-2014 23:00:00 14 C 9.77 g/m*3 14 C 1.6 km/h
520 03-06-2014 23:05:00 13.9 C 9.71 g/m*3 13.9 C 0 km/h
521 03-06-2014 23:10:00 13.9 C 9.83 g/m*3 13.9 C 0 km/h
522 03-06-2014 23:15:00 13.8 C 9.77 g/m*3 13.8 C 0 km/h
523 03-06-2014 23:20:00 13.7 C 9.71 g/m*3 13.7 C 0 km/h
524 03-06-2014 23:25:00 13.6 C 9.77 g/m*3 13.6 C 0 km/h
525 03-06-2014 23:30:00 13.6 C 9.77 g/m*3 13.6 C 0 km/h
Sensor: Nr:Datum:Temp:Abs-Feuchte:Windchill:Wind:
Aussen-T/F 526 03-06-2014 23:35:00 13.4 C 9.65 g/m*3 13.4 C 0 km/h
527 03-06-2014 23:40:00 13.4 C 9.88 g/m*3 13.4 C 0 km/h
528 03-06-2014 23:45:00 13.5 C 9.83 g/m*3 13.5 C 6.4 km/h
529 03-06-2014 23:50:00 13.4 C 9.76 g/m*3 13.4 C 0 km/h
530 03-06-2014 23:55:00 13.4 C 9.76 g/m*3 13.4 C 0 km/h
531 04-06-2014 00:00:00 13.2 C 9.76 g/m*3 13.2 C 0 km/h
532 04-06-2014 00:05:00 13.2 C 9.76 g/m*3 13.2 C 0 km/h
533 04-06-2014 00:10:00 13.1 C 9.81 g/m*3 13.1 C 1.6 km/h
534 04-06-2014 00:15:00 13.1 C 9.81 g/m*3 13.1 C 0 km/h
535 04-06-2014 00:20:00 13 C 9.75 g/m*3 13 C 0 km/h
536 04-06-2014 00:25:00 13 C 9.75 g/m*3 13 C 0 km/h
537 04-06-2014 00:30:00 12.9 C 9.81 g/m*3 12.9 C 0 km/h
538 04-06-2014 00:35:00 12.9 C 9.69 g/m*3 12.9 C 0 km/h
539 04-06-2014 00:40:00 12.8 C 9.74 g/m*3 12.8 C 0 km/h
540 04-06-2014 00:45:00 12.8 C 9.74 g/m*3 12.8 C 0 km/h
541 04-06-2014 00:50:00 12.8 C 9.74 g/m*3 12.8 C 0 km/h
542 04-06-2014 00:55:00 12.8 C 9.74 g/m*3 12.8 C 0 km/h
543 04-06-2014 01:00:00 12.7 C 9.68 g/m*3 12.7 C 0 km/h
544 04-06-2014 01:05:00 12.7 C 9.68 g/m*3 12.7 C 0 km/h
545 04-06-2014 01:10:00 12.5 C 9.68 g/m*3 12.5 C 0 km/h
546 04-06-2014 01:15:00 12.4 C 9.62 g/m*3 12.4 C 0 km/h
547 04-06-2014 01:20:00 12.3 C 9.56 g/m*3 12.3 C 0 km/h
548 04-06-2014 01:25:00 12.3 C 9.66 g/m*3 12.3 C 0 km/h
549 04-06-2014 01:30:00 12.2 C 9.5 g/m*3 12.2 C 0 km/h
550 04-06-2014 01:35:00 12.1 C 9.54 g/m*3 12.1 C 0 km/h
Sensor: Nr:Datum:Temp:Abs-Feuchte:Windchill:Wind:
Aussen-T/F 551 04-06-2014 01:40:00 11.9 C 9.43 g/m*3 11.9 C 0 km/h
552 04-06-2014 01:45:00 11.9 C 9.43 g/m*3 11.9 C 0 km/h
553 04-06-2014 01:50:00 11.9 C 9.43 g/m*3 11.9 C 0 km/h
554 04-06-2014 01:55:00 11.9 C 9.43 g/m*3 11.9 C 0 km/h
555 04-06-2014 02:00:00 11.8 C 9.47 g/m*3 11.8 C 1.6 km/h
556 04-06-2014 02:05:00 11.8 C 9.47 g/m*3 11.8 C 1.6 km/h
557 04-06-2014 02:10:00 11.8 C 9.47 g/m*3 11.8 C 0 km/h
558 04-06-2014 02:15:00 11.8 C 9.47 g/m*3 11.8 C 0 km/h
559 04-06-2014 02:20:00 11.7 C 9.52 g/m*3 11.7 C 0 km/h
560 04-06-2014 02:25:00 11.7 C 9.52 g/m*3 11.7 C 0 km/h
561 04-06-2014 02:30:00 11.6 C 9.46 g/m*3 11.6 C 0 km/h
562 04-06-2014 02:35:00 11.5 C 9.4 g/m*3 11.5 C 0 km/h
563 04-06-2014 02:40:00 11.4 C 9.34 g/m*3 11.4 C 0 km/h
564 04-06-2014 02:45:00 11.4 C 9.34 g/m*3 11.4 C 0 km/h
565 04-06-2014 02:50:00 11.3 C 9.38 g/m*3 11.3 C 0 km/h
566 04-06-2014 02:55:00 11.3 C 9.38 g/m*3 11.3 C 0 km/h
567 04-06-2014 03:00:00 11.3 C 9.38 g/m*3 11.3 C 0 km/h
568 04-06-2014 03:05:00 11.3 C 9.38 g/m*3 11.3 C 0 km/h
569 04-06-2014 03:10:00 11.2 C 9.33 g/m*3 11.2 C 0 km/h
570 04-06-2014 03:15:00 11.1 C 9.27 g/m*3 11.1 C 0 km/h
571 04-06-2014 03:20:00 11.1 C 9.27 g/m*3 11.1 C 0 km/h
572 04-06-2014 03:25:00 11 C 9.31 g/m*3 11 C 0 km/h
573 04-06-2014 03:30:00 10.9 C 9.25 g/m*3 10.9 C 0 km/h
574 04-06-2014 03:35:00 10.9 C 9.25 g/m*3 10.9 C 0 km/h
575 04-06-2014 03:40:00 10.8 C 9.19 g/m*3 10.8 C 0 km/h
Sensor: Nr:Datum:Temp:Abs-Feuchte:Windchill:Wind:
Aussen-T/F 576 04-06-2014 03:45:00 10.8 C 9.19 g/m*3 10.8 C 0 km/h
577 04-06-2014 03:50:00 10.8 C 9.19 g/m*3 10.8 C 0 km/h
578 04-06-2014 03:55:00 10.8 C 9.19 g/m*3 10.8 C 0 km/h
579 04-06-2014 04:00:00 10.8 C 9.19 g/m*3 10.8 C 0 km/h
580 04-06-2014 04:05:00 10.8 C 9.29 g/m*3 10.8 C 0 km/h
581 04-06-2014 04:10:00 10.8 C 9.29 g/m*3 10.8 C 1.6 km/h
582 04-06-2014 04:15:00 10.7 C 9.23 g/m*3 10.7 C 1.6 km/h
583 04-06-2014 04:20:00 10.7 C 9.23 g/m*3 10.7 C 0 km/h
584 04-06-2014 04:25:00 10.7 C 9.23 g/m*3 10.7 C 0 km/h
585 04-06-2014 04:30:00 10.6 C 9.17 g/m*3 10.6 C 0 km/h
586 04-06-2014 04:35:00 10.5 C 9.12 g/m*3 10.5 C 0 km/h
587 04-06-2014 04:40:00 10.5 C 9.12 g/m*3 10.5 C 0 km/h
588 04-06-2014 04:45:00 10.6 C 9.17 g/m*3 10.6 C 1.6 km/h
589 04-06-2014 04:50:00 10.6 C 9.17 g/m*3 10.6 C 0 km/h
590 04-06-2014 04:55:00 10.6 C 9.17 g/m*3 10.6 C 0 km/h
591 04-06-2014 05:00:00 10.7 C 9.23 g/m*3 10.7 C 0 km/h
592 04-06-2014 05:05:00 10.7 C 9.23 g/m*3 10.7 C 0 km/h
593 04-06-2014 05:10:00 10.8 C 9.39 g/m*3 10.8 C 0 km/h
594 04-06-2014 05:15:00 10.8 C 9.39 g/m*3 10.8 C 0 km/h
595 04-06-2014 05:20:00 10.9 C 9.45 g/m*3 10.9 C 0 km/h
596 04-06-2014 05:25:00 10.9 C 9.35 g/m*3 10.9 C 0 km/h
597 04-06-2014 05:30:00 10.9 C 9.35 g/m*3 10.9 C 0 km/h
598 04-06-2014 05:35:00 10.9 C 9.35 g/m*3 10.9 C 0 km/h
599 04-06-2014 05:40:00 10.9 C 9.35 g/m*3 10.9 C 0 km/h
600 04-06-2014 05:45:00 10.9 C 9.35 g/m*3 10.9 C 0 km/h
Sensor: Nr:Datum:Temp:Abs-Feuchte:Windchill:Wind:
Aussen-T/F 601 04-06-2014 05:50:00 10.9 C 9.35 g/m*3 10.9 C 0 km/h
602 04-06-2014 05:55:00 10.9 C 9.35 g/m*3 10.9 C 0 km/h
603 04-06-2014 06:00:00 10.9 C 9.35 g/m*3 10.9 C 0 km/h
604 04-06-2014 06:05:00 11.1 C 9.47 g/m*3 11.1 C 0 km/h
605 04-06-2014 06:10:00 11.2 C 9.53 g/m*3 11.2 C 1.6 km/h
606 04-06-2014 06:15:00 11.3 C 9.59 g/m*3 11.3 C 0 km/h
607 04-06-2014 06:20:00 11.4 C 9.65 g/m*3 11.4 C 1.6 km/h
608 04-06-2014 06:25:00 11.6 C 9.67 g/m*3 11.6 C 0 km/h
609 04-06-2014 06:30:00 11.7 C 9.73 g/m*3 11.7 C 0 km/h
610 04-06-2014 06:35:00 11.8 C 9.79 g/m*3 11.8 C 0 km/h
611 04-06-2014 06:40:00 11.9 C 9.74 g/m*3 11.9 C 1.6 km/h
612 04-06-2014 06:45:00 12.1 C 9.87 g/m*3 12.1 C 0 km/h
613 04-06-2014 06:50:00 12.1 C 9.76 g/m*3 12.1 C 0 km/h
614 04-06-2014 06:55:00 12.2 C 9.82 g/m*3 12.2 C 0 km/h
615 04-06-2014 07:00:00 12.3 C 9.77 g/m*3 12.3 C 0 km/h
616 04-06-2014 07:05:00 12.4 C 9.83 g/m*3 12.4 C 0 km/h
617 04-06-2014 07:10:00 12.5 C 9.89 g/m*3 12.5 C 0 km/h
618 04-06-2014 07:15:00 12.6 C 9.85 g/m*3 12.6 C 0 km/h
619 04-06-2014 07:20:00 12.7 C 9.91 g/m*3 12.7 C 0 km/h
620 04-06-2014 07:25:00 12.8 C 10.08 g/m*3 12.8 C 1.6 km/h
621 04-06-2014 07:30:00 12.9 C 10.03 g/m*3 12.9 C 0 km/h
622 04-06-2014 07:35:00 13.1 C 10.16 g/m*3 13.1 C 0 km/h
623 04-06-2014 07:40:00 13.3 C 10.17 g/m*3 13.3 C 0 km/h
624 04-06-2014 07:45:00 13.4 C 10.23 g/m*3 13.4 C 0 km/h
625 04-06-2014 07:50:00 13.6 C 10.36 g/m*3 13.6 C 0 km/h
Sensor: Nr:Datum:Temp:Abs-Feuchte:Windchill:Wind:
Aussen-T/F 626 04-06-2014 07:55:00 13.7 C 10.3 g/m*3 13.7 C 0 km/h
627 04-06-2014 08:00:00 13.8 C 10.37 g/m*3 13.8 C 0 km/h
628 04-06-2014 08:05:00 14 C 10.49 g/m*3 14 C 0 km/h
629 04-06-2014 08:10:00 14.4 C 10.75 g/m*3 14.4 C 0 km/h
630 04-06-2014 08:15:00 14.8 C 10.77 g/m*3 14.8 C 1.6 km/h
631 04-06-2014 08:20:00 15.3 C 10.97 g/m*3 15.3 C 1.6 km/h
632 04-06-2014 08:25:00 15.7 C 11.11 g/m*3 15.7 C 1.6 km/h
633 04-06-2014 08:30:00 15.9 C 11.1 g/m*3 15.9 C 1.6 km/h
634 04-06-2014 08:35:00 16.2 C 11.17 g/m*3 16.2 C 1.6 km/h
635 04-06-2014 08:40:00 16.4 C 11.17 g/m*3 16.4 C 1.6 km/h
636 04-06-2014 08:45:00 16.8 C 11.58 g/m*3 16.8 C 1.6 km/h
637 04-06-2014 08:50:00 17.1 C 11.21 g/m*3 17.1 C 6.4 km/h
638 04-06-2014 08:55:00 17.4 C 11.12 g/m*3 17.4 C 4.8 km/h
639 04-06-2014 09:00:00 17.5 C 11.18 g/m*3 17.5 C 3.2 km/h
640 04-06-2014 09:05:00 17.6 C 11.1 g/m*3 17.6 C 1.6 km/h
641 04-06-2014 09:10:00 17.7 C 10.86 g/m*3 17.7 C 9.7 km/h
642 04-06-2014 09:15:00 17.8 C 11.08 g/m*3 17.8 C 3.2 km/h
643 04-06-2014 09:20:00 17.8 C 11.08 g/m*3 17.8 C 4.8 km/h
644 04-06-2014 09:25:00 17.8 C 10.93 g/m*3 17.8 C 3.2 km/h
645 04-06-2014 09:30:00 17.9 C 11.15 g/m*3 17.9 C 8.1 km/h
646 04-06-2014 09:35:00 18.1 C 11.43 g/m*3 18.1 C 4.8 km/h
647 04-06-2014 09:40:00 18.3 C 11.26 g/m*3 18.3 C 4.8 km/h
648 04-06-2014 09:45:00 18.3 C 11.1 g/m*3 18.3 C 14.5 km/h
649 04-06-2014 09:50:00 18.3 C 11.1 g/m*3 18.3 C 12.9 km/h
650 04-06-2014 09:55:00 18.3 C 11.1 g/m*3 18.3 C 4.8 km/h
Sensor: Nr:Datum:Temp:Abs-Feuchte:Windchill:Wind:
Aussen-T/F 651 04-06-2014 11:40:00 20.4 C 12.21 g/m*3 20.4 C 6.4 km/h
652 04-06-2014 11:45:00 20.6 C 12.17 g/m*3 20.6 C 3.2 km/h
653 04-06-2014 11:50:00 20.8 C 11.77 g/m*3 20.8 C 3.2 km/h
654 04-06-2014 11:55:00 20.9 C 11.84 g/m*3 20.9 C 3.2 km/h
655 04-06-2014 12:00:00 21 C 11.54 g/m*3 21 C 8.1 km/h
656 04-06-2014 12:05:00 20.9 C 11.47 g/m*3 20.9 C 3.2 km/h
657 04-06-2014 12:10:00 20.9 C 11.84 g/m*3 20.9 C 3.2 km/h
658 04-06-2014 12:15:00 20.8 C 11.59 g/m*3 20.8 C 3.2 km/h
659 04-06-2014 12:20:00 20.6 C 12.35 g/m*3 20.6 C 1.6 km/h
660 04-06-2014 12:25:00 20.3 C 11.61 g/m*3 20.3 C 3.2 km/h
661 04-06-2014 12:30:00 20.1 C 12.34 g/m*3 20.1 C 0 km/h
662 04-06-2014 12:35:00 19.8 C 11.27 g/m*3 19.8 C 3.2 km/h
663 04-06-2014 12:40:00 19.7 C 11.04 g/m*3 19.7 C 6.4 km/h
664 04-06-2014 12:45:00 19.5 C 10.91 g/m*3 19.5 C 11.3 km/h
665 04-06-2014 12:50:00 19.3 C 10.78 g/m*3 19.3 C 9.7 km/h
666 04-06-2014 12:55:00 19.1 C 10.66 g/m*3 19.1 C 14.5 km/h
667 04-06-2014 13:00:00 18.8 C 10.79 g/m*3 18.8 C 19.3 km/h
668 04-06-2014 13:05:00 18.4 C 10.85 g/m*3 18.4 C 14.5 km/h
669 04-06-2014 13:10:00 18.2 C 11.19 g/m*3 18.2 C 11.3 km/h
670 04-06-2014 13:15:00 17.9 C 11.15 g/m*3 17.9 C 8.1 km/h
671 04-06-2014 13:20:00 17.8 C 10.93 g/m*3 17.8 C 4.8 km/h
672 04-06-2014 13:25:00 17.9 C 11.15 g/m*3 17.9 C 6.4 km/h
673 04-06-2014 13:30:00 18 C 11.21 g/m*3 18 C 9.7 km/h
674 04-06-2014 13:35:00 17.9 C 11.3 g/m*3 17.9 C 12.9 km/h
675 04-06-2014 13:40:00 17.8 C 11.23 g/m*3 17.8 C 8.1 km/h
Sensor: Nr:Datum:Temp:Abs-Feuchte:Windchill:Wind:
Aussen-T/F 676 04-06-2014 13:45:00 17.7 C 11.47 g/m*3 17.7 C 9.7 km/h
677 04-06-2014 13:50:00 17.7 C 12.07 g/m*3 17.7 C 8.1 km/h
678 04-06-2014 13:55:00 17.6 C 12 g/m*3 17.6 C 3.2 km/h
679 04-06-2014 14:00:00 17.5 C 11.63 g/m*3 17.5 C 4.8 km/h
680 04-06-2014 14:05:00 17.4 C 11.71 g/m*3 17.4 C 6.4 km/h
681 04-06-2014 14:10:00 17.3 C 11.93 g/m*3 17.3 C 6.4 km/h
682 04-06-2014 14:15:00 17.2 C 12.01 g/m*3 17.2 C 0 km/h
683 04-06-2014 14:20:00 17.1 C 11.94 g/m*3 17.1 C 0 km/h
684 04-06-2014 14:25:00 16.9 C 11.94 g/m*3 16.9 C 0 km/h
685 04-06-2014 14:30:00 16.7 C 11.94 g/m*3 16.7 C 0 km/h
686 04-06-2014 14:35:00 16.5 C 12.08 g/m*3 16.5 C 0 km/h
687 04-06-2014 14:40:00 16.4 C 12.14 g/m*3 16.4 C 0 km/h
688 04-06-2014 14:45:00 16.5 C 12.36 g/m*3 16.5 C 0 km/h
689 04-06-2014 14:50:00 16.8 C 12.87 g/m*3 16.8 C 0 km/h
690 04-06-2014 14:55:00 17.1 C 13.1 g/m*3 17.1 C 3.2 km/h
691 04-06-2014 15:00:00 17.4 C 13.19 g/m*3 17.4 C 4.8 km/h
692 04-06-2014 15:05:00 17.6 C 12.9 g/m*3 17.6 C 3.2 km/h
693 04-06-2014 15:10:00 17.8 C 12.9 g/m*3 17.8 C 4.8 km/h
694 04-06-2014 15:15:00 17.9 C 12.83 g/m*3 17.9 C 1.6 km/h
695 04-06-2014 15:20:00 17.8 C 12.9 g/m*3 17.8 C 0 km/h
696 04-06-2014 15:25:00 17.6 C 13.05 g/m*3 17.6 C 0 km/h
697 04-06-2014 15:30:00 17.2 C 12.89 g/m*3 17.2 C 0 km/h
698 04-06-2014 15:35:00 17.1 C 13.1 g/m*3 17.1 C 0 km/h
699 04-06-2014 15:40:00 17.2 C 13.33 g/m*3 17.2 C 0 km/h
700 04-06-2014 15:45:00 17.2 C 13.18 g/m*3 17.2 C 4.8 km/h
Sensor: Nr:Datum:Temp:Abs-Feuchte:Windchill:Wind:
Aussen-T/F 701 04-06-2014 15:50:00 17.2 C 13.18 g/m*3 17.2 C 3.2 km/h
702 04-06-2014 15:55:00 17.3 C 13.26 g/m*3 17.3 C 0 km/h
703 04-06-2014 16:00:00 17.4 C 13.34 g/m*3 17.4 C 0 km/h
704 04-06-2014 16:05:00 17.5 C 13.42 g/m*3 17.5 C 0 km/h
705 04-06-2014 16:10:00 17.4 C 13.34 g/m*3 17.4 C 0 km/h
706 04-06-2014 16:15:00 17.4 C 13.34 g/m*3 17.4 C 0 km/h
707 04-06-2014 16:20:00 17.4 C 13.49 g/m*3 17.4 C 0 km/h
708 04-06-2014 16:25:00 17.3 C 13.41 g/m*3 17.3 C 0 km/h
709 04-06-2014 16:30:00 17.2 C 13.33 g/m*3 17.2 C 0 km/h
710 04-06-2014 16:35:00 17.1 C 13.39 g/m*3 17.1 C 0 km/h
711 04-06-2014 16:40:00 16.7 C 13.07 g/m*3 16.7 C 0 km/h
712 04-06-2014 16:45:00 16.6 C 13.14 g/m*3 16.6 C 0 km/h
713 04-06-2014 16:50:00 16.5 C 13.06 g/m*3 16.5 C 1.6 km/h
714 04-06-2014 16:55:00 16.6 C 13.28 g/m*3 16.6 C 0 km/h
715 04-06-2014 17:00:00 16.4 C 12.98 g/m*3 16.4 C 0 km/h
716 04-06-2014 17:05:00 16.6 C 13.28 g/m*3 16.6 C 0 km/h
717 04-06-2014 17:10:00 16.6 C 13.28 g/m*3 16.6 C 0 km/h
718 04-06-2014 17:15:00 16.7 C 13.36 g/m*3 16.7 C 0 km/h
719 04-06-2014 17:20:00 16.8 C 13.58 g/m*3 16.8 C 0 km/h
720 04-06-2014 17:25:00 16.8 C 13.58 g/m*3 16.8 C 0 km/h
721 04-06-2014 17:30:00 16.8 C 13.58 g/m*3 16.8 C 0 km/h
722 04-06-2014 17:35:00 16.8 C 13.58 g/m*3 16.8 C 4.8 km/h
723 04-06-2014 17:40:00 16.8 C 13.58 g/m*3 16.8 C 0 km/h
724 04-06-2014 17:45:00 16.5 C 13.06 g/m*3 16.5 C 3.2 km/h
725 04-06-2014 17:50:00 16.3 C 12.9 g/m*3 16.3 C 1.6 km/h
Sensor: Nr:Datum:Temp:Abs-Feuchte:Windchill:Wind:
Aussen-T/F 726 04-06-2014 17:55:00 16.2 C 12.82 g/m*3 16.2 C 0 km/h
727 04-06-2014 18:00:00 16.1 C 12.75 g/m*3 16.1 C 0 km/h
728 04-06-2014 18:05:00 16.1 C 12.88 g/m*3 16.1 C 0 km/h
729 04-06-2014 18:10:00 16.2 C 12.96 g/m*3 16.2 C 0 km/h
730 04-06-2014 18:15:00 16.2 C 13.1 g/m*3 16.2 C 0 km/h
731 04-06-2014 18:20:00 16.3 C 13.18 g/m*3 16.3 C 0 km/h
732 04-06-2014 18:25:00 16.5 C 13.34 g/m*3 16.5 C 0 km/h
733 04-06-2014 18:30:00 16.6 C 13.28 g/m*3 16.6 C 0 km/h
734 04-06-2014 18:35:00 16.9 C 13.38 g/m*3 16.9 C 6.4 km/h
735 04-06-2014 18:40:00 17.2 C 13.47 g/m*3 17.2 C 0 km/h
736 04-06-2014 18:45:00 17.4 C 13.34 g/m*3 17.4 C 1.6 km/h
737 04-06-2014 18:50:00 17.8 C 13.36 g/m*3 17.8 C 1.6 km/h
738 04-06-2014 18:55:00 17.9 C 13.59 g/m*3 17.9 C 0 km/h
739 04-06-2014 19:00:00 17.9 C 13.44 g/m*3 17.9 C 0 km/h
740 04-06-2014 19:05:00 18.1 C 13.44 g/m*3 18.1 C 1.6 km/h
741 04-06-2014 19:10:00 18.1 C 13.75 g/m*3 18.1 C 3.2 km/h
742 04-06-2014 19:15:00 18.1 C 13.13 g/m*3 18.1 C 1.6 km/h
743 04-06-2014 19:20:00 18 C 13.52 g/m*3 18 C 0 km/h
744 04-06-2014 19:25:00 17.8 C 13.51 g/m*3 17.8 C 0 km/h
745 04-06-2014 19:30:00 17.6 C 13.5 g/m*3 17.6 C 0 km/h
746 04-06-2014 19:35:00 17.6 C 13.5 g/m*3 17.6 C 1.6 km/h
747 04-06-2014 21:45:00 14.6 C 11.89 g/m*3 14.6 C 0 km/h
748 04-06-2014 21:50:00 14.5 C 11.69 g/m*3 14.5 C 0 km/h
749 04-06-2014 21:55:00 14.5 C 11.69 g/m*3 14.5 C 1.6 km/h

Legende:
   Min
   Max


Maximal/Minimal-Werte vom 02.06.2014 - 04.06.2014

Sensor Min Max Avg
Temp
(Aussen-T/F)
8.7 °C
02-06-2014  05:30:00
24 °C
02-06-2014  17:45:00
15.58 °C
Abs-Feuchte
(Aussen-T/F)
7.87 g/m*3
02-06-2014  05:30:00
13.75 g/m*3
04-06-2014  19:10:00
9.87 g/m*3
Windchill
(Aussen-T/F)
8.68 C
02-06-2014  07:10:00
24 C
02-06-2014  17:45:00
15.55 C

Die Daten stammen von einer Davis Vantage Pro 2 Wetter-Station und werden unter Linux mit der Software wview2wettercgi und aufbereitet. Alle Angaben erfolgen ohne Gewähr für ihre Vollständigkeit oder Richtigkeit.
Kontakt: Rainer Krienke krienke@uni-koblenz.de . Meine Webseiten an der Uni Koblenz oder privat.
Version: $Revision: 0.78 $